Regional Weather Roundup
Issued by NWS San Angelo, TX

Home | Current Version | Previous Version | Text Only | Print | Product List | Glossary On
Versions: 1 2 3 4 5 6 7 8 9 10 11 12 13 14 15 16 17 18 19 20 21 22 23 24 25 26 27 28 29 30 31 32 33 34 35 36 37 38 39 40 41 42 43 44 45 46 47 48 49 50
000
ASUS44 KSJT 252310
RWRSJT
WEST CENTRAL TEXAS REGIONAL WEATHER ROUNDUP
NATIONAL WEATHER SERVICE SAN ANGELO TX
500 PM CST SUN FEB 25 2018

NOTE: "FAIR" INDICATES FEW OR NO CLOUDS BELOW 12,000 FEET WITH NO
SIGNIFICANT WEATHER AND/OR OBSTRUCTIONS TO VISIBILITY.

TXZ049-054-064>066-071>073-076>078-098-099-113-114-127-128-139-140-
154-155-168>170-260000
...LOCATIONS ACROSS WEST CENTRAL TEXAS...

CITY           SKY/WX    TMP DP  RH WIND       PRES   REMARKS
SAN ANGELO     SUNNY     76   2   5 W18       29.94R
ABILENE        SUNNY     70  28  21 SW10      29.93S
DYESS AFB      SUNNY     73  21  14 W12       29.92S
JUNCTION       SUNNY     76  31  19 W7        29.95R
SWEETWATER     SUNNY     71   7   8 W15G25    29.97R
BROWNWOOD      NOT AVBL
COLEMAN        CLEAR     72  29  20 SW8       29.95S
SONORA         SUNNY     75  23  14 CALM      30.00R
OZONA          FAIR      75  14   9 NW12G18   29.98S
BRADY          NOT AVBL
$$

TEXAS PANHANDLE/OKLAHOMA PANHANDLE

CITY           SKY/WX    TMP DP  RH WIND       PRES   REMARKS
AMARILLO       CLOUDY    52   8  17 N17G26    29.99R
BORGER         SUNNY     54  10  17 N16       30.00R
CANADIAN       SUNNY     55  12  18 N15G21    29.98R
DALHART        MOSUNNY   50   6  16 W9        30.01R
DUMAS          CLEAR     49   8  18 N15       30.00R
GUYMON         NOT AVBL
HEREFORD       CLEAR     56   3  12 NW21G29   30.01R
PAMPA          CLEAR     55  11  17 N20       29.99R
PERRYTON       SUNNY     53  10  17 N16       30.00R
$$

SOUTHERN PANHANDLE/SOUTH PLAINS/ROLLING PLAINS

CITY           SKY/WX    TMP DP  RH WIND       PRES   REMARKS
LUBBOCK        MOSUNNY   59   2  10 W26G38    30.00R
SNYDER         SUNNY     70   3   7 W18G28    29.96R
CHILDRESS      SUNNY     65   6  10 W30G40    29.95R
SEMINOLE       CLEAR     62   6  10 NW18G24   30.03R
$$

PERMIAN BASIN

CITY           SKY/WX    TMP DP  RH WIND       PRES   REMARKS
MIDLAND        SUNNY     71  -1   6 W15       29.98R
ODESSA         SUNNY     70  -4   5 W17       29.99R
WINK           SUNNY     70  -2   6 W20G26    29.99R
$$

FAR WEST/SOUTHWEST MOUNTAINS/TRANS PECOS

CITY           SKY/WX    TMP DP  RH WIND       PRES   REMARKS
ALPINE         CLEAR     66  -3   6 W14G22    30.12R
DRYDEN           N/A     79   3   5 SW13      29.93S
EL PASO        SUNNY     61   1   9 NW14G25   30.08R
FORT STOCKTON  SUNNY     71  -4   5 NW20G29   30.00R
GUADALUPE PASS SUNNY     56  -1  10 SW36G52   30.05R
MARFA            N/A     64  -4   6 W18       30.09S
PECOS          CLEAR     70   2   6 NW17G26   30.00R
$$

DALLAS/FORT WORTH METROPLEX

CITY           SKY/WX    TMP DP  RH WIND       PRES   REMARKS
DFW AIRPORT    MOSUNNY   68  44  42 S7        29.96R
FTW MEACHAM    SUNNY     67  43  41 SE10      29.95S
DAL-EXECUTIVE  MOSUNNY   65  49  56 SE10      29.97R
GRAND PRAIRIE  SUNNY     66  45  45 SE8       29.98R
ADDISON        SUNNY     66  43  42 SE9       29.98R
MESQUITE       PTCLDY    63  52  67 SE10      29.98S
LANCASTER      CLEAR     63  48  58 SE9       29.99R
$$

NORTH CENTRAL TEXAS

CITY           SKY/WX    TMP DP  RH WIND       PRES   REMARKS
SHRMAN/DENISON CLEAR     64  39  39 SE6       29.99R
GAINESVILLE    SUNNY     64  35  34 S8        29.98R
BRIDGEPORT     CLEAR     68  31  25 SW5       29.96R
DENTON         SUNNY     67  39  35 SE8       29.96R
WAXAHACHIE     NOT AVBL
GRANBURY       CLEAR     69  41  35 SE7       29.97S
$$

WESTERN NORTH TEXAS

CITY           SKY/WX    TMP DP  RH WIND       PRES   REMARKS
WICHITA FALLS  SUNNY     67  29  24 S10       29.93F
VERNON         CLEAR     69   7   8 S7        29.93R
BRECKENRIDGE   CLEAR     73  24  15 SW8       29.92S
COMANCHE       SUNNY     71  35  26 W5        29.95S
$$

CENTRAL AND SOUTH CENTRAL TEXAS

CITY           SKY/WX    TMP DP  RH WIND       PRES   REMARKS
AUSTIN/BERGSTM MOSUNNY   61  55  81 NE10      29.97R
WACO           SUNNY     64  47  53 SE8       29.98R
HILLSBORO      CLEAR     64  49  57 SE3       29.97S
TEMPLE           N/A     62  50  64 E7        29.98S
KILLEEN-GRAY   SUNNY     63  47  55 E7        29.97R
FORT HOOD      NOT AVBL
GEORGETOWN     SUNNY     63  52  67 NE7       30.00R
LAGO VISTA     FAIR      65  52  64 E3        29.98R
SAN MARCOS     SUNNY     62  56  80 NE10      29.97R
NEW BRAUNFELS  PTSUNNY   64  54  69 NE9       29.95R
RANDOLPH AFB   MOSUNNY   66  54  65 NE13      29.95R
SAN ANTONIO    MOSUNNY   69  53  56 E10       29.95R
STINSON        SUNNY     70  54  56 E12       29.93R
PLEASANTON     NOT AVBL
LA GRANGE      CLOUDY    58  57  94 NE6       29.94S
GIDDINGS       LGT RAIN  57  54  88 N6        29.97R
$$

EAST TEXAS

CITY           SKY/WX    TMP DP  RH WIND       PRES   REMARKS
PARIS          PTSUNNY   60  50  69 SE10      30.01R
CLARKSVILLE    NOT AVBL
TYLER          CLOUDY    57  47  69 E7        29.99F
LONGVIEW       CLOUDY    53  51  93 E5        30.02F
PALESTINE      MOCLDY    55  50  85 NE3       30.02R
NACOGDOCHES    LGT RAIN  50  49  96 VRB7      29.97F
$$

TEXAS HILL COUNTRY AND EDWARDS PLATEAU

CITY           SKY/WX    TMP DP  RH WIND       PRES   REMARKS
LLANO          CLEAR     73  41  31 E5        29.98S
HORSESHOE BAY  FAIR      68  48  48 CALM      29.98R
KERRVILLE      SUNNY     74  36  24 NW3       29.95S
FREDERICKSBRG  SUNNY     70  43  37 CALM      29.97R
ROCKSPRINGS    CLEAR     73  36  25 W10       30.01S
HONDO          SUNNY     80  53  39 NE7       29.92R
UVALDE         CLEAR     77  51  39 CALM      29.93R
DEL RIO        SUNNY     80  29  15 CALM      29.90S
$$

SOUTHEAST TEXAS

CITY           SKY/WX    TMP DP  RH WIND       PRES   REMARKS
COLLEGE STN    CLOUDY    56  54  93 N5        29.97R
CALDWELL       CLOUDY    56  54  91 N10       29.97F
CROCKETT       CLOUDY    50  50 100 NE5       30.02R
BRENHAM        CLOUDY    57  57  98 CALM      29.97R
HUNTSVILLE     CLOUDY    54  53  97 E7        29.94F
CONROE         HVY RAIN  55  55 100 E6        29.96R FOG
HOUSTON BUSH   LGT RAIN  57  55  93 NE10      29.94F
HOUSTON HOBBY  CLOUDY    61  61 100 N16       29.93R
PERLAND        CLOUDY    65  64  97 N10       29.93R FOG
WHARTON        CLOUDY    59  57  93 N9        29.95R FOG
$$

THE UPPER TEXAS COAST

CITY           SKY/WX    TMP DP  RH WIND       PRES   REMARKS
ORANGE         CLOUDY    68  67  97 NE5       29.95R
PORT ARTHUR    CLOUDY    70  66  87 E5        29.92S
GALVESTON      CLOUDY    75  72  90 S10       29.92R
ANGLETON       CLOUDY    76  70  82 S16G22    29.90R
BAY CITY       CLOUDY    76  71  84 S15       29.91R
$$

TEXAS COASTAL BEND, RIO GRANDE PLAINS DEEP SOUTH TEXAS

CITY           SKY/WX    TMP DP  RH WIND       PRES   REMARKS
VICTORIA       CLOUDY    61  58  90 N13       29.94R
BEEVILLE       CLOUDY    65  60  83 N9        29.92R
ROCKPORT       CLOUDY    75  70  84 S10       29.89R HAZE
PORT ARANSAS   NOT AVBL
PORT LAVACA    CLOUDY    64  61  90 N12       29.92R
CORPUS CHRISTI CLOUDY    74  65  73 N14       29.89R
KINGSVILLE NAS PTSUNNY   78  66  66 NW12      29.88R
COTULLA        SUNNY     75  61  61 E6        29.91S
LAREDO         MOSUNNY   82  62  50 VRB6      29.89S
BROWNSVILLE    FAIR      81  73  76 S14       29.88R
PORT ISABEL    FAIR      80  70  71 S13       29.86S
HEBBRONVILLE   PTCLDY    80  61  52 E7        29.90R HAZE
MCALLEN        MOSUNNY   82  71  69 NW7       29.87S
WESLACO        PTSUNNY   82  68  63 NW8       29.86S
FALFURRIAS     MOCLDY    80  69  70 NW6       29.88R
EDINBURG       CLOUDY    82  68  63 NW5       29.87S
$$




USA.gov is the U.S. government's official web portal to all federal, state and local government web resources and services.